Weather History for Oujda, Morocco

Change the Weather History Date:

Thursday, December 13, 2012

  Actual Average Record
Temperature  
Mean Temperature 49 °F -  
Max Temperature 59 °F 59 °F 75 °F (2000)
Min Temperature 39 °F 40 °F 32 °F (2005)
Degree Days  
Heating Degree Days 16    
Moisture  
Dew Point 44 °F    
Average Humidity 91    
Maximum Humidity 100    
Minimum Humidity 66    
Precipitation  
Precipitation 0.00 in 0.05 in - ()
Sea Level Pressure  
Sea Level Pressure 30.01 in    
Wind  
Wind Speed 2 mph ()    
Max Wind Speed 13 mph    
Max Gust Speed -    
Visibility 3.4 miles    
Events Fog    
Averages and records for this station are not official NWS values.
T = Trace of Precipitation, MM = Missing Value Source: Averaged Metar Reports

Daily Weather History Graph

Daily Weather History Graph

Search for Another Location

Airport:

Trip Planner

Search our weather history database for the weather conditions in past years. The results will help you decide how hot, cold, wet, or windy it might be!

Date:

Astronomy

Dec. 13, 2012 Rise Set
Actual Time 7:06 AM WET 4:57 PM WET
Civil Twilight 6:38 AM WET 5:25 PM WET
Nautical Twilight 6:07 AM WET 5:57 PM WET
Astronomical Twilight 5:36 AM WET 6:27 PM WET
Moon 7:00 AM WET (12/13) 5:22 PM WET (12/13)
Length of Visible Light 10h 46m
Length of Day
9h 50m
Waxing Crescent, 0% of the Moon is Illuminated
Dec 13
Waxing Crescent
Dec 20
First Quarter
Dec 28
Full
Jan 5
Last Quarter
Jan 11
New

Hourly Weather History & Observations

Time (WET) Temp. Windchill Dew Point Humidity Pressure Visibility Wind Dir Wind Speed Gust Speed Precip Events Conditions
12:00 AM 44 °F - 43 °F 94% 30.05 in 4 mi Calm Calm - -   Partly Cloudy
12:00 AM 44.6 °F - 42.8 °F 93% 30.01 in 3.7 mi Calm Calm - N/A   Scattered Clouds
2:00 AM 42.8 °F - 41.0 °F 93% 29.98 in 3.7 mi Calm Calm - N/A   Scattered Clouds
3:55 AM 41.0 °F - 39.2 °F 93% 29.98 in 1.9 mi NNW 1.2 mph - N/A   Scattered Clouds
4:00 AM 41.0 °F - 39.2 °F 93% 29.98 in 1.9 mi NNW 1.2 mph - N/A   Scattered Clouds
4:31 AM 41.0 °F - 39.2 °F 93% 29.98 in 0.3 mi Calm Calm - N/A Fog Fog
4:32 AM 41.0 °F - 39.2 °F 93% 29.98 in 0.3 mi Calm Calm - N/A Fog Fog
5:00 AM 39.2 °F 37.0 °F 39.2 °F 100% 29.98 in 0.3 mi South 3.5 mph - N/A Fog Fog
7:38 AM 41.0 °F - 41.0 °F 100% 30.01 in 1.2 mi Variable 2.3 mph - N/A   Partly Cloudy
7:39 AM 41.0 °F - 41.0 °F 100% 30.01 in 0.5 mi Variable 2.3 mph - N/A Fog Fog
7:55 AM 42.8 °F - 42.8 °F 100% 30.01 in 0.7 mi Variable 2.3 mph - N/A   Partly Cloudy
8:00 AM 42.8 °F - 42.8 °F 100% 30.01 in 0.7 mi Variable 2.3 mph - N/A   Partly Cloudy
8:05 AM 44.6 °F - 42.8 °F 93% 30.01 in 5.0 mi Variable 1.2 mph - N/A   Scattered Clouds
9:00 AM 46 °F - 46 °F 99% 30.06 in 7 mi South 3.5 mph - -   Partly Cloudy
11:00 AM 55.4 °F - 55.4 °F 100% 30.04 in 6.2 mi WSW 12.7 mph - N/A   Partly Cloudy
2:00 PM 59.0 °F - 50.0 °F 72% 30.01 in 6.2 mi North 4.6 mph - N/A   Scattered Clouds
3:00 PM 58 °F - 50 °F 66% 30.00 in 6 mi North 6.9 mph - -   Mostly Cloudy
4:00 PM 57.2 °F - 48.2 °F 72% 30.01 in 6.2 mi North 8.1 mph - N/A   Scattered Clouds
5:00 PM 55.4 °F - 48.2 °F 77% 30.04 in 6.2 mi NNW 6.9 mph - N/A   Partly Cloudy
7:00 PM 48.2 °F - 44.6 °F 87% 30.06 in 6.2 mi SW 3.5 mph - N/A   Partly Cloudy